DELTA 1 DEB, 10832

Orbit data source: Space-Track

DELTA 1 DEB, 10832 is space debris in SSO originally from a launch on Thu, 29 Jul 1976 UTC launched from the Air Force Western Test Range (AFWTR). Debris objects in space refer to the collection of defunct objects orbiting the Earth. Examples of debris include non-operational satellites, rocket bodies, and fragments generated from explosions, collisions, or faulty payload assembly.

Loading next visibility...
Identifier
10832, 1976-077CC
Orbit
SSO
Country
Flag of USUS
Related business
Manufacturer
Unknown
Mission
Spacecraft
Bus & Motor
Unknown
Mass
Unknown
Launch date (UTC)
1976-07-29 (50 years ago)
Launch vehicle
Unknown
Launch site
Air Force Western Test Range (AFWTR)
Object type
Payload
Rocket body
Debris
Shape & HBR
Unknown shape, 0.1 m
Radar Cross Section
Small (<0.1 m²)

Expand to show TLE details & history
Last TLE update: 8 hours ago

TLE from 8 hours ago
0 DELTA 1 DEB
1 10832U 76077CC  26104.54138544  .00000023  00000-0  63212-3 0  9990
2 10832 102.2810  31.9287 0119753 299.4780 248.9165 12.20108910213909
Epoch: 2026-04-14T12:59Z
TLE epoch observation values (Epoch: 2026-04-14T12:59:35.702Z)
Latitude
-7.09729°
Longitude
172.76813°
Altitude
1,631.108 km
Speed
7.04 km/s
True Right ascension
14h 01m 31s
True Declination
-7° 03' 35"
Sunlit
Object was in full shadow at epoch
Visualization orbit readout
Latitude
Unknown
Longitude
Unknown
Altitude
Unknown
Speed
Unknown
Apparent Right ascension
Unknown
Apparent Declination
Unknown
Sunlit
N/A
Visualization observer readout
Local Sidereal Time
03:31:53
Azimuth
Unknown
Elevation
Unknown
Doppler factor
Unknown
Orbital elements
Apogee altitude
1,685.101 km
Perigee altitude
1,494.267 km
Semi-major axis
7,967.821 km
Eccentricity
0.01198
Inclination
102.281°
RAAN
31.9287°
Arg. of periapsis
299.478°
True anomaly
247.64306°
Mean anomaly
248.9165°
Eccentric anomaly
248.27908°
Mean motion
3.05164 °/min
Orbital period
117.97 mins
BSTAR
0.00063212
Loading maneuver chart data...
Computing Atmospheric mass density...
Loading historical data...
Loading historical data...
Loading historical data...
Loading historical data...
Loading historical data...
Loading historical data...
Loading historical data...

Documentation

Showing up to 5 results
|